FDX458 LFBD-LFKJ

Flight info

Callsign FDX458
Flight time 1h 12m
Altitude 33000
Route OBLOC6P OBLOC DCT SECHE DCT SOVET DCT FJR DCT AMFAC DCT RUBAS RUBAS3S
Aircraft R722/M-SDFGRWY/S

Departure

Time 2026-05-04 16:43
Airport Bordeaux–Mérignac Airport (LFBD)

Arrival

Time 2026-05-04 17:56
Airport Ajaccio Napoléon Bonaparte airport (LFKJ)
Time Latitude Longitude Altitude Speed Heading
2026-05-04 16:12 44.82755 -0.69660 173 ft 0 kts 116°
2026-05-04 16:35 44.82771 -0.69710 173 ft 4 kts 105°
2026-05-04 16:35 44.82770 -0.69810 173 ft 4 kts 102°
2026-05-04 16:36 44.82773 -0.69830 173 ft 0 kts 102°
2026-05-04 16:39 44.82770 -0.69810 173 ft 10 kts 102°
2026-05-04 16:39 44.82750 -0.69729 173 ft 5 kts 137°
2026-05-04 16:40 44.82714 -0.69847 173 ft 12 kts 281°
2026-05-04 16:40 44.82692 -0.69937 173 ft 0 kts 204°
2026-05-04 16:41 44.82687 -0.69940 173 ft 5 kts 199°
2026-05-04 16:42 44.82562 -0.70079 175 ft 3 kts 284°
2026-05-04 16:43 44.82874 -0.71640 348 ft 153 kts 288°
2026-05-04 16:43 44.83211 -0.73152 1180 ft 164 kts 288°
2026-05-04 16:44 44.80631 -0.77856 1947 ft 256 kts 163°
2026-05-04 16:45 44.77459 -0.75634 2658 ft 257 kts 154°
2026-05-04 16:46 44.72390 -0.73316 3953 ft 259 kts 156°
2026-05-04 16:46 44.69902 -0.69696 4909 ft 267 kts 114°
2026-05-04 16:47 44.69339 -0.64498 5878 ft 274 kts 92°
2026-05-04 16:47 44.69256 -0.59122 6832 ft 277 kts 95°
2026-05-04 16:48 44.68960 -0.50954 8316 ft 284 kts 95°
2026-05-04 16:48 44.68865 -0.48166 8826 ft 286 kts 96°
2026-05-04 16:49 44.68667 -0.42544 9866 ft 291 kts 96°
2026-05-04 16:49 44.68465 -0.36802 10871 ft 296 kts 96°
2026-05-04 16:50 44.68256 -0.30969 11939 ft 302 kts 96°
2026-05-04 16:50 44.68040 -0.25013 13035 ft 308 kts 97°
2026-05-04 16:51 44.67816 -0.18942 14112 ft 313 kts 97°
2026-05-04 16:51 44.67631 -0.15890 14649 ft 313 kts 106°
2026-05-04 16:51 44.65984 -0.10294 15772 ft 311 kts 123°
2026-05-04 16:52 44.63966 -0.04838 16900 ft 318 kts 121°
2026-05-04 16:52 44.62998 -0.02016 17475 ft 322 kts 121°
2026-05-04 16:53 44.60979 0.03665 18603 ft 328 kts 122°
2026-05-04 16:53 44.57897 0.12354 20363 ft 336 kts 122°
2026-05-04 16:54 44.56862 0.15257 20956 ft 338 kts 122°
2026-05-04 16:55 44.52575 0.27269 23432 ft 351 kts 122°
2026-05-04 16:55 44.50324 0.33546 24655 ft 369 kts 122°
2026-05-04 16:56 44.47968 0.40115 26026 ft 386 kts 122°
2026-05-04 16:56 44.44229 0.50515 28178 ft 411 kts 122°
2026-05-04 16:57 44.43088 0.54231 28923 ft 422 kts 116°
2026-05-04 16:57 44.41415 0.62277 30419 ft 436 kts 111°
2026-05-04 16:58 44.38536 0.74329 32745 ft 441 kts 114°
2026-05-04 16:58 44.37592 0.78565 32940 ft 461 kts 113°
2026-05-04 16:59 44.35543 0.87371 32957 ft 500 kts 114°
2026-05-04 17:00 44.30915 1.07127 32947 ft 551 kts 114°
2026-05-04 17:00 44.27425 1.21895 32928 ft 513 kts 114°
2026-05-04 17:01 44.25145 1.31348 32948 ft 517 kts 114°
2026-05-04 17:02 44.20595 1.50373 32954 ft 517 kts 114°
2026-05-04 17:03 44.17175 1.64576 32952 ft 517 kts 114°
2026-05-04 17:03 44.13718 1.78804 32943 ft 517 kts 114°
2026-05-04 17:04 44.09089 1.97719 32951 ft 515 kts 114°
2026-05-04 17:05 44.04446 2.16538 32913 ft 514 kts 114°
2026-05-04 17:06 44.00950 2.30599 32923 ft 512 kts 114°
2026-05-04 17:07 43.97845 2.43031 32906 ft 512 kts 114°
2026-05-04 17:07 43.95117 2.53883 32919 ft 510 kts 114°
2026-05-04 17:08 43.91598 2.67816 32913 ft 510 kts 114°
2026-05-04 17:09 43.89246 2.77086 32930 ft 509 kts 114°
2026-05-04 17:09 43.86890 2.86336 32926 ft 509 kts 114°
2026-05-04 17:10 43.80993 3.09318 32933 ft 507 kts 114°
2026-05-04 17:11 43.78621 3.18494 32934 ft 506 kts 114°
2026-05-04 17:12 43.75053 3.32244 32944 ft 505 kts 114°
2026-05-04 17:13 43.69082 3.55060 32942 ft 504 kts 114°
2026-05-04 17:14 43.64282 3.73256 32937 ft 504 kts 115°
2026-05-04 17:15 43.60953 3.85812 32949 ft 493 kts 115°
2026-05-04 17:16 43.57543 3.97283 32934 ft 488 kts 126°
2026-05-04 17:16 43.51465 4.07419 32936 ft 480 kts 139°
2026-05-04 17:17 43.49162 4.10776 32932 ft 483 kts 137°
2026-05-04 17:18 43.40245 4.24656 32936 ft 484 kts 137°
2026-05-04 17:19 43.31267 4.38504 32943 ft 486 kts 138°
2026-05-04 17:20 43.22258 4.52304 32946 ft 487 kts 138°
2026-05-04 17:20 43.15463 4.62674 32943 ft 488 kts 138°
2026-05-04 17:21 43.06363 4.76478 32948 ft 488 kts 139°
2026-05-04 17:22 43.01806 4.83365 32952 ft 488 kts 139°
2026-05-04 17:23 42.92709 4.97073 32949 ft 488 kts 139°
2026-05-04 17:24 42.86434 5.08109 32958 ft 504 kts 124°
2026-05-04 17:25 42.80559 5.25558 32954 ft 510 kts 117°
2026-05-04 17:26 42.74904 5.43201 32940 ft 510 kts 118°
2026-05-04 17:27 42.67856 5.65197 30746 ft 497 kts 119°
2026-05-04 17:27 42.65326 5.73710 32050 ft 489 kts 115°
2026-05-04 17:28 42.62971 5.82514 32980 ft 510 kts 118°
2026-05-04 17:29 42.55208 6.09705 32989 ft 515 kts 117°
2026-05-04 17:31 42.48740 6.32422 33000 ft 517 kts 117°
2026-05-04 17:32 42.42210 6.55096 33005 ft 519 kts 117°
2026-05-04 17:33 42.38237 6.68768 32480 ft 519 kts 117°
2026-05-04 17:33 42.36941 6.73249 32006 ft 499 kts 118°
2026-05-04 17:34 42.33259 6.85836 28081 ft 444 kts 117°
2026-05-04 17:34 42.32215 6.89594 27400 ft 421 kts 116°
2026-05-04 17:35 42.29011 7.00197 26094 ft 399 kts 116°
2026-05-04 17:35 42.27004 7.07137 25549 ft 394 kts 116°
2026-05-04 17:35 42.25971 7.10565 25277 ft 392 kts 116°
2026-05-04 17:36 42.24959 7.13972 25019 ft 390 kts 116°
2026-05-04 17:36 42.23963 7.17364 24757 ft 388 kts 115°
2026-05-04 17:36 42.22966 7.20732 24508 ft 385 kts 115°
2026-05-04 17:36 42.21965 7.24085 24117 ft 383 kts 115°
2026-05-04 17:37 42.20978 7.27398 23629 ft 378 kts 115°
2026-05-04 17:37 42.20006 7.30668 23082 ft 374 kts 115°
2026-05-04 17:37 42.19024 7.33959 22578 ft 377 kts 115°
2026-05-04 17:37 42.18049 7.37222 22082 ft 373 kts 115°
2026-05-04 17:38 42.17083 7.40457 21593 ft 370 kts 115°
2026-05-04 17:38 42.16123 7.43661 21109 ft 367 kts 115°
2026-05-04 17:38 42.15171 7.46836 20633 ft 363 kts 115°
2026-05-04 17:38 42.14245 7.49924 20171 ft 360 kts 115°
2026-05-04 17:39 42.12373 7.56145 19224 ft 355 kts 115°
2026-05-04 17:39 42.11450 7.59212 18756 ft 352 kts 115°
2026-05-04 17:39 42.10533 7.62252 18287 ft 349 kts 115°
2026-05-04 17:40 42.09621 7.65273 17800 ft 346 kts 115°
2026-05-04 17:40 42.08715 7.68271 17340 ft 345 kts 115°
2026-05-04 17:40 42.07810 7.71261 16880 ft 344 kts 116°
2026-05-04 17:40 42.06911 7.74228 16439 ft 341 kts 115°
2026-05-04 17:41 42.06016 7.77178 15990 ft 340 kts 116°
2026-05-04 17:41 42.05124 7.80116 15541 ft 338 kts 116°
2026-05-04 17:41 42.04236 7.83038 15092 ft 336 kts 116°
2026-05-04 17:41 42.03352 7.85941 14663 ft 334 kts 116°
2026-05-04 17:42 42.02473 7.88828 14223 ft 332 kts 116°
2026-05-04 17:42 42.01597 7.91700 13778 ft 330 kts 116°
2026-05-04 17:42 42.00728 7.94546 13318 ft 327 kts 116°
2026-05-04 17:42 41.99866 7.97365 12889 ft 325 kts 116°
2026-05-04 17:43 41.99009 8.00165 12453 ft 323 kts 116°
2026-05-04 17:43 41.98240 8.02989 12023 ft 322 kts 106°
2026-05-04 17:43 41.97985 8.05897 11617 ft 315 kts 95°
2026-05-04 17:43 41.97979 8.08815 11214 ft 311 kts 91°
2026-05-04 17:44 41.98040 8.11740 10804 ft 308 kts 91°
2026-05-04 17:44 41.98030 8.14576 10397 ft 305 kts 93°
2026-05-04 17:44 41.97989 8.17410 10001 ft 303 kts 93°
2026-05-04 17:44 41.97973 8.20228 9588 ft 301 kts 92°
2026-05-04 17:45 41.97969 8.22991 9193 ft 285 kts 92°
2026-05-04 17:45 41.97958 8.25551 8816 ft 264 kts 93°
2026-05-04 17:45 41.97941 8.27947 8480 ft 249 kts 93°
2026-05-04 17:45 41.97925 8.30239 8161 ft 243 kts 93°
2026-05-04 17:46 41.97913 8.32280 7882 ft 242 kts 93°
2026-05-04 17:46 41.97897 8.34535 7538 ft 241 kts 93°
2026-05-04 17:46 41.97884 8.36774 7221 ft 236 kts 93°
2026-05-04 17:46 41.97871 8.38936 6905 ft 226 kts 94°
2026-05-04 17:47 41.97856 8.41009 6609 ft 219 kts 94°
2026-05-04 17:47 41.97840 8.43052 6312 ft 218 kts 94°
2026-05-04 17:47 41.97827 8.45081 6014 ft 216 kts 94°
2026-05-04 17:47 41.97811 8.47085 5737 ft 213 kts 95°
2026-05-04 17:48 41.97796 8.49045 5466 ft 211 kts 95°
2026-05-04 17:48 41.97792 8.51005 5190 ft 209 kts 92°
2026-05-04 17:48 41.97962 8.52960 4906 ft 211 kts 84°
2026-05-04 17:48 41.98230 8.54880 4625 ft 203 kts 84°
2026-05-04 17:49 41.98537 8.56625 4348 ft 183 kts 77°
2026-05-04 17:49 41.98948 8.58194 4102 ft 176 kts 75°
2026-05-04 17:49 41.99336 8.59735 3869 ft 173 kts 77°
2026-05-04 17:49 41.99707 8.61255 3656 ft 169 kts 76°
2026-05-04 17:50 42.00070 8.62727 3439 ft 164 kts 76°
2026-05-04 17:50 42.00414 8.64126 3230 ft 154 kts 76°
2026-05-04 17:50 42.00748 8.65504 3086 ft 152 kts 77°
2026-05-04 17:50 42.00794 8.66863 3013 ft 144 kts 107°
2026-05-04 17:51 42.00549 8.68180 3013 ft 144 kts 103°
2026-05-04 17:51 42.00401 8.69496 3014 ft 142 kts 102°
2026-05-04 17:51 42.00230 8.70824 3011 ft 139 kts 103°
2026-05-04 17:51 42.00058 8.72100 2952 ft 126 kts 102°
2026-05-04 17:52 41.99914 8.73199 2803 ft 118 kts 102°
2026-05-04 17:52 41.99767 8.74287 2687 ft 119 kts 103°
2026-05-04 17:52 41.99634 8.75381 2522 ft 117 kts 102°
2026-05-04 17:52 41.99493 8.76463 2347 ft 118 kts 103°
2026-05-04 17:53 41.99342 8.77558 2154 ft 117 kts 101°
2026-05-04 17:53 41.99204 8.78645 1963 ft 117 kts 100°
2026-05-04 17:53 41.99062 8.79724 1798 ft 117 kts 99°
2026-05-04 17:53 41.98879 8.80782 1618 ft 117 kts 104°
2026-05-04 17:54 41.98514 8.81767 1386 ft 122 kts 127°
2026-05-04 17:54 41.97897 8.82517 1186 ft 119 kts 146°
2026-05-04 17:54 41.97122 8.82901 1027 ft 118 kts 170°
2026-05-04 17:54 41.96314 8.82757 882 ft 122 kts 203°
2026-05-04 17:55 41.95584 8.82214 731 ft 119 kts 211°
2026-05-04 17:55 41.94819 8.81750 530 ft 122 kts 201°
2026-05-04 17:55 41.94051 8.81284 354 ft 121 kts 205°
2026-05-04 17:55 41.93284 8.80811 161 ft 122 kts 206°
2026-05-04 17:56 41.92538 8.80334 27 ft 110 kts 206°
2026-05-04 17:56 41.91997 8.79998 26 ft 58 kts 205°
2026-05-04 17:56 41.91735 8.79835 26 ft 38 kts 205°
2026-05-04 17:56 41.91493 8.79686 25 ft 37 kts 205°
2026-05-04 17:57 41.91317 8.79571 26 ft 26 kts 211°
2026-05-04 17:57 41.91249 8.79434 25 ft 13 kts 308°
2026-05-04 17:57 41.91340 8.79366 25 ft 17 kts 335°
2026-05-04 17:57 41.91466 8.79334 25 ft 21 kts 18°
2026-05-04 17:58 41.91607 8.79424 27 ft 24 kts 24°
2026-05-04 17:58 41.91770 8.79525 26 ft 28 kts 25°
2026-05-04 17:58 41.91926 8.79622 25 ft 21 kts 25°
2026-05-04 17:58 41.92036 8.79690 25 ft 18 kts 25°
2026-05-04 17:59 41.92161 8.79769 26 ft 22 kts 25°
2026-05-04 17:59 41.92282 8.79827 25 ft 10 kts 339°
2026-05-04 17:59 41.92306 8.79639 24 ft 15 kts 275°
2026-05-04 18:00 41.92318 8.79479 25 ft 19 kts 276°
2026-05-04 18:00 41.92327 8.79286 25 ft 15 kts 274°
2026-05-04 18:00 41.92333 8.79164 25 ft 8 kts 248°
2026-05-04 18:00 41.92303 8.79137 25 ft 2 kts 189°
2026-05-04 18:01 41.92295 8.79135 25 ft 0 kts 189°
2026-05-04 18:01 41.92314 8.79136 25 ft 1 kts 184°
2026-05-04 18:01 41.92303 8.79135 25 ft 0 kts 184°